| time (UTC) | temp F | wind direction | speed MPH | gust MPH | rain 1hr in | rain 24hr in | rain mn in | humidity % | barometer mb |
| 20260505204514 | 50 | 22 | 2.0 | 7.0 | 0.00 | 0.01 | 0.00 | 76 | 1011.8 |
| 20260505204011 | 50 | 309 | 1.0 | 5.0 | 0.00 | 0.01 | 0.00 | 76 | 1011.7 |
| 20260505203512 | 50 | 12 | 1.0 | 5.0 | 0.00 | 0.01 | 0.00 | 76 | 1011.7 |
| 20260505203012 | 50 | 16 | 1.0 | 6.0 | 0.00 | 0.01 | 0.00 | 77 | 1011.7 |
| 20260505202512 | 50 | 65 | 2.0 | 6.0 | 0.00 | 0.01 | 0.00 | 76 | 1011.7 |
| 20260505202012 | 50 | 336 | 2.0 | 7.0 | 0.00 | 0.01 | 0.00 | 76 | 1011.6 |
| 20260505201514 | 50 | 57 | 2.0 | 9.0 | 0.00 | 0.01 | 0.00 | 76 | 1011.7 |
| 20260505201012 | 51 | 53 | 3.0 | 9.0 | 0.00 | 0.01 | 0.00 | 76 | 1011.6 |
| 20260505200511 | 51 | 278 | 3.0 | 9.0 | 0.00 | 0.01 | 0.00 | 76 | 1011.5 |
| 20260505200011 | 51 | 293 | 2.0 | 8.0 | 0.00 | 0.01 | 0.00 | 76 | 1011.5 |
| 20260505195509 | 51 | 325 | 2.0 | 8.0 | 0.00 | 0.01 | 0.00 | 75 | 1011.5 |
| 20260505195010 | 51 | 312 | 1.0 | 8.0 | 0.00 | 0.01 | 0.00 | 75 | 1011.4 |
| 20260505194510 | 51 | 317 | 1.0 | 9.0 | 0.00 | 0.01 | 0.00 | 75 | 1011.4 |
| 20260505194010 | 51 | 22 | 2.0 | 9.0 | 0.00 | 0.01 | 0.00 | 75 | 1011.4 |
| 20260505193515 | 51 | 80 | 2.0 | 7.0 | 0.00 | 0.01 | 0.00 | 75 | 1011.3 |
| 20260505193011 | 51 | 340 | 1.0 | 8.0 | 0.00 | 0.01 | 0.00 | 75 | 1011.2 |
| 20260505192511 | 51 | 254 | 3.0 | 9.0 | 0.00 | 0.01 | 0.00 | 75 | 1011.1 |
| 20260505192009 | 51 | 27 | 4.0 | 9.0 | 0.00 | 0.01 | 0.00 | 75 | 1011.2 |
| 20260505191509 | 51 | 80 | 2.0 | 13.0 | 0.00 | 0.01 | 0.00 | 75 | 1011.1 |
| 20260505191008 | 51 | 77 | 3.0 | 13.0 | 0.00 | 0.01 | 0.00 | 75 | 1011.1 |
| 20260505190508 | 52 | 325 | 2.0 | 6.0 | 0.00 | 0.01 | 0.00 | 75 | 1011.0 |
| 20260505190019 | 52 | 56 | 2.0 | 11.0 | 0.00 | 0.01 | 0.00 | 75 | 1011.0 |
| 20260505185510 | 52 | 5 | 2.0 | 11.0 | 0.00 | 0.01 | 0.00 | 75 | 1011.0 |
| 20260505185010 | 52 | 347 | 3.0 | 10.0 | 0.00 | 0.01 | 0.00 | 75 | 1011.0 |
| 20260505184511 | 52 | 72 | 3.0 | 10.0 | 0.00 | 0.01 | 0.00 | 74 | 1011.0 |
| 20260505184007 | 52 | 319 | 3.0 | 10.0 | 0.00 | 0.01 | 0.00 | 74 | 1011.0 |
| 20260505183507 | 52 | 11 | 4.0 | 10.0 | 0.00 | 0.01 | 0.00 | 74 | 1011.0 |
| 20260505183008 | 53 | 196 | 2.0 | 9.0 | 0.00 | 0.01 | 0.00 | 74 | 1010.9 |
| 20260505182511 | 53 | 9 | 3.0 | 8.0 | 0.00 | 0.01 | 0.00 | 74 | 1010.9 |
| 20260505182005 | 53 | 344 | 2.0 | 8.0 | 0.00 | 0.01 | 0.00 | 74 | 1010.9 |
| 20260505181506 | 53 | 312 | 2.0 | 12.0 | 0.00 | 0.01 | 0.00 | 73 | 1011.0 |
| 20260505181004 | 53 | 306 | 3.0 | 10.0 | 0.00 | 0.01 | 0.00 | 73 | 1011.0 |
| 20260505180504 | 54 | 90 | 2.0 | 10.0 | 0.00 | 0.01 | 0.00 | 73 | 1011.0 |
| 20260505180008 | 54 | 46 | 3.0 | 8.0 | 0.00 | 0.01 | 0.00 | 72 | 1011.0 |
| 20260505175509 | 54 | 285 | 2.0 | 11.0 | 0.00 | 0.01 | 0.00 | 73 | 1011.0 |
| 20260505175006 | 54 | 330 | 4.0 | 12.0 | 0.00 | 0.01 | 0.00 | 72 | 1011.0 |
| 20260505174507 | 54 | 339 | 3.0 | 11.0 | 0.00 | 0.01 | 0.00 | 72 | 1011.0 |
| 20260505174002 | 55 | 62 | 3.0 | 11.0 | 0.00 | 0.01 | 0.00 | 72 | 1011.0 |
| 20260505173506 | 55 | 298 | 2.0 | 8.0 | 0.00 | 0.01 | 0.00 | 72 | 1011.0 |
| 20260505173003 | 55 | 327 | 2.0 | 9.0 | 0.00 | 0.01 | 0.00 | 72 | 1011.0 |
| 20260505172502 | 55 | 55 | 3.0 | 10.0 | 0.00 | 0.01 | 0.00 | 71 | 1011.0 |
| 20260505172002 | 55 | 332 | 3.0 | 8.0 | 0.00 | 0.01 | 0.00 | 71 | 1011.0 |
| 20260505171506 | 56 | 271 | 2.0 | 10.0 | 0.00 | 0.01 | 0.00 | 70 | 1011.0 |
| 20260505171003 | 56 | 269 | 2.0 | 10.0 | 0.00 | 0.01 | 0.00 | 71 | 1010.9 |
| 20260505170502 | 56 | 275 | 3.0 | 10.0 | 0.00 | 0.01 | 0.00 | 71 | 1010.9 |
| 20260505170002 | 56 | 15 | 4.0 | 10.0 | 0.00 | 0.01 | 0.00 | 70 | 1010.9 |
| 20260505165502 | 56 | 72 | 2.0 | 11.0 | 0.00 | 0.01 | 0.00 | 70 | 1010.8 |
| 20260505165002 | 56 | 277 | 2.0 | 11.0 | 0.00 | 0.01 | 0.00 | 69 | 1010.9 |
| 20260505164501 | 56 | 281 | 3.0 | 11.0 | 0.00 | 0.01 | 0.00 | 69 | 1010.9 |
| 20260505164002 | 56 | 282 | 2.0 | 11.0 | 0.00 | 0.01 | 0.00 | 69 | 1010.9 |
| 20260505163505 | 56 | 331 | 2.0 | 11.0 | 0.00 | 0.01 | 0.00 | 69 | 1010.9 |
| 20260505163101 | 57 | 45 | 4.0 | 10.0 | 0.00 | 0.01 | 0.00 | 68 | 1010.9 |
| 20260505162600 | 57 | 329 | 3.0 | 9.0 | 0.00 | 0.01 | 0.00 | 68 | 1010.9 |
| 20260505162100 | 57 | 267 | 2.0 | 10.0 | 0.00 | 0.01 | 0.00 | 68 | 1011.0 |
| 20260505161606 | 57 | 54 | 4.0 | 10.0 | 0.00 | 0.01 | 0.00 | 67 | 1010.9 |
| 20260505161059 | 57 | 323 | 3.0 | 10.0 | 0.00 | 0.01 | 0.00 | 67 | 1011.0 |
| 20260505160558 | 57 | 334 | 2.0 | 9.0 | 0.00 | 0.01 | 0.00 | 67 | 1011.0 |
| 20260505153103 | 58 | 83 | 2.0 | 8.0 | 0.00 | 0.01 | 0.00 | 66 | 1011.0 |
| 20260505152557 | 58 | 71 | 2.0 | 6.0 | 0.00 | 0.01 | 0.00 | 66 | 1011.0 |
| 20260505152056 | 58 | 17 | 2.0 | 11.0 | 0.00 | 0.01 | 0.00 | 67 | 1011.1 |
| 20260505151607 | 58 | 101 | 2.0 | 13.0 | 0.00 | 0.01 | 0.00 | 67 | 1011.1 |
| 20260505151056 | 58 | 82 | 1.0 | 13.0 | 0.00 | 0.01 | 0.00 | 66 | 1011.1 |
| 20260505150556 | 58 | 294 | 3.0 | 10.0 | 0.00 | 0.01 | 0.00 | 67 | 1011.0 |
| 20260505140551 | 59 | 82 | 2.0 | 10.0 | 0.00 | 0.01 | 0.00 | 66 | 1011.3 |
| 20260505140110 | 58 | 78 | 2.0 | 10.0 | 0.00 | 0.01 | 0.00 | 66 | 1011.3 |
| 20260505124547 | 59 | 24 | 4.0 | 14.0 | 0.00 | 0.01 | 0.00 | 65 | 1011.6 |
| 20260505124046 | 59 | 323 | 3.0 | 11.0 | 0.00 | 0.01 | 0.00 | 64 | 1011.7 |
| 20260505123545 | 59 | 5 | 5.0 | 11.0 | 0.00 | 0.01 | 0.00 | 65 | 1011.6 |
| 20260505123051 | 59 | 90 | 3.0 | 10.0 | 0.00 | 0.01 | 0.00 | 65 | 1011.6 |
| 20260505122544 | 59 | 69 | 3.0 | 9.0 | 0.00 | 0.01 | 0.00 | 65 | 1011.7 |
| 20260505122043 | 59 | 57 | 2.0 | 9.0 | 0.00 | 0.01 | 0.00 | 65 | 1011.7 |
| 20260505121542 | 59 | 30 | 3.0 | 9.0 | 0.00 | 0.01 | 0.00 | 64 | 1011.8 |
| 20260505121042 | 59 | 322 | 2.0 | 9.0 | 0.00 | 0.01 | 0.00 | 65 | 1011.8 |
| 20260505120541 | 59 | 281 | 2.0 | 12.0 | 0.00 | 0.01 | 0.00 | 66 | 1011.8 |
| 20260505120048 | 59 | 84 | 4.0 | 11.0 | 0.00 | 0.01 | 0.00 | 65 | 1011.9 |
| 20260505115540 | 59 | 69 | 2.0 | 10.0 | 0.00 | 0.01 | 0.00 | 67 | 1011.9 |
| 20260505115039 | 59 | 79 | 4.0 | 10.0 | 0.00 | 0.01 | 0.00 | 65 | 1012.0 |
| 20260505114544 | 59 | 290 | 2.0 | 9.0 | 0.00 | 0.01 | 0.00 | 65 | 1012.0 |
| 20260505114036 | 59 | 330 | 3.0 | 9.0 | 0.00 | 0.01 | 0.00 | 67 | 1012.0 |
| 20260505113537 | 58 | 69 | 2.0 | 12.0 | 0.00 | 0.01 | 0.00 | 66 | 1012.0 |
| 20260505113035 | 58 | 76 | 3.0 | 10.0 | 0.00 | 0.01 | 0.00 | 68 | 1012.1 |
| 20260505112535 | 58 | 62 | 3.0 | 9.0 | 0.00 | 0.01 | 0.00 | 67 | 1012.0 |
| 20260505112035 | 58 | 12 | 2.0 | 10.0 | 0.00 | 0.01 | 0.00 | 67 | 1011.9 |
| 20260505111534 | 58 | 296 | 3.0 | 8.0 | 0.00 | 0.01 | 0.00 | 68 | 1011.9 |
| 20260505111033 | 58 | 84 | 3.0 | 9.0 | 0.00 | 0.01 | 0.00 | 67 | 1012.0 |
| 20260505110533 | 58 | 17 | 2.0 | 9.0 | 0.00 | 0.01 | 0.00 | 67 | 1012.0 |
| 20260505102027 | 57 | 35 | 2.0 | 14.0 | 0.00 | 0.01 | 0.00 | 68 | 1012.6 |
| 20260505101540 | 57 | 63 | 3.0 | 10.0 | 0.00 | 0.01 | 0.00 | 67 | 1012.6 |
| 20260505101027 | 57 | 308 | 1.0 | 9.0 | 0.00 | 0.01 | 0.00 | 69 | 1012.5 |
| 20260505100527 | 57 | 281 | 2.0 | 9.0 | 0.00 | 0.01 | 0.00 | 69 | 1012.5 |
| 20260505100026 | 57 | 93 | 2.0 | 9.0 | 0.00 | 0.01 | 0.00 | 69 | 1012.3 |
| 20260505095525 | 57 | 315 | 2.0 | 10.0 | 0.00 | 0.02 | 0.00 | 70 | 1012.4 |
| 20260505095029 | 56 | 51 | 3.0 | 10.0 | 0.00 | 0.02 | 0.00 | 69 | 1012.5 |
| 20260505094534 | 56 | 15 | 2.0 | 10.0 | 0.00 | 0.02 | 0.00 | 69 | 1012.5 |
| 20260505094025 | 57 | 44 | 5.0 | 10.0 | 0.00 | 0.02 | 0.00 | 69 | 1012.5 |
| 20260505093525 | 56 | 49 | 4.0 | 12.0 | 0.00 | 0.02 | 0.00 | 69 | 1012.5 |
| 20260505093024 | 57 | 182 | 3.0 | 9.0 | 0.00 | 0.02 | 0.00 | 68 | 1012.5 |
| 20260505092527 | 57 | 304 | 3.0 | 6.0 | 0.00 | 0.02 | 0.00 | 69 | 1012.6 |
| 20260505092022 | 57 | 57 | 2.0 | 9.0 | 0.00 | 0.02 | 0.00 | 71 | 1012.6 |
| 20260505091521 | 56 | 60 | 2.0 | 9.0 | 0.00 | 0.02 | 0.00 | 70 | 1012.6 |
| 20260505091020 | 56 | 94 | 1.0 | 8.0 | 0.00 | 0.02 | 0.00 | 70 | 1012.5 |
| 20260505090518 | 56 | 19 | 2.0 | 8.0 | 0.00 | 0.02 | 0.00 | 72 | 1012.5 |
| 20260505090021 | 55 | 307 | 2.0 | 9.0 | 0.00 | 0.02 | 0.00 | 71 | 1012.4 |
| 20260505085519 | 55 | 332 | 2.0 | 11.0 | 0.00 | 0.02 | 0.00 | 71 | 1012.4 |
| 20260505085016 | 55 | 82 | 5.0 | 11.0 | 0.00 | 0.02 | 0.00 | 70 | 1012.4 |
| 20260505084515 | 55 | 19 | 4.0 | 11.0 | 0.00 | 0.02 | 0.00 | 70 | 1012.4 |
| 20260505084016 | 55 | 307 | 4.0 | 11.0 | 0.00 | 0.02 | 0.00 | 71 | 1012.3 |
| 20260505083512 | 55 | 355 | 2.0 | 9.0 | 0.00 | 0.02 | 0.00 | 73 | 1012.3 |
| 20260505083017 | 55 | 310 | 3.0 | 8.0 | 0.00 | 0.02 | 0.00 | 73 | 1012.3 |
| 20260505082514 | 54 | 85 | 3.0 | 8.0 | 0.00 | 0.02 | 0.00 | 73 | 1012.4 |
| 20260505082010 | 54 | 57 | 2.0 | 10.0 | 0.00 | 0.02 | 0.00 | 73 | 1012.5 |
| 20260505081507 | 55 | 286 | 4.0 | 13.0 | 0.00 | 0.02 | 0.00 | 73 | 1012.5 |
| 20260505081009 | 54 | 94 | 2.0 | 8.0 | 0.00 | 0.02 | 0.00 | 74 | 1012.6 |
| 20260505080504 | 54 | 271 | 2.0 | 9.0 | 0.00 | 0.02 | 0.00 | 73 | 1012.6 |
| 20260505080005 | 54 | 55 | 3.0 | 15.0 | 0.00 | 0.02 | 0.00 | 74 | 1012.7 |
| 20260505075506 | 54 | 64 | 2.0 | 15.0 | 0.00 | 0.02 | 0.00 | 75 | 1012.7 |
| 20260505075003 | 53 | 48 | 3.0 | 9.0 | 0.00 | 0.02 | 0.00 | 75 | 1012.7 |
| 20260505074601 | 53 | 342 | 2.0 | 9.0 | 0.00 | 0.02 | 0.00 | 76 | 1012.7 |
| 20260505074100 | 53 | 76 | 3.0 | 12.0 | 0.00 | 0.02 | 0.00 | 76 | 1012.8 |
| 20260505073558 | 53 | 9 | 2.0 | 10.0 | 0.00 | 0.02 | 0.00 | 77 | 1012.9 |
| 20260505073124 | 53 | 82 | 2.0 | 7.0 | 0.00 | 0.02 | 0.00 | 79 | 1012.9 |
| 20260505072557 | 52 | 9 | 2.0 | 6.0 | 0.00 | 0.02 | 0.00 | 80 | 1013.0 |
| 20260505072058 | 52 | 65 | 2.0 | 6.0 | 0.00 | 0.02 | 0.00 | 81 | 1013.0 |
| 20260505071602 | 52 | 282 | 2.0 | 5.0 | 0.00 | 0.02 | 0.00 | 82 | 1013.0 |
| 20260505071055 | 51 | 297 | 1.0 | 8.0 | 0.00 | 0.02 | 0.00 | 82 | 1013.1 |
| 20260505070555 | 51 | 31 | 3.0 | 10.0 | 0.00 | 0.02 | 0.00 | 82 | 1013.0 |
| 20260505070101 | 51 | 58 | 3.0 | 10.0 | 0.00 | 0.02 | 0.00 | 82 | 1013.1 |
| 20260505065556 | 51 | 26 | 1.0 | 5.0 | 0.00 | 0.02 | 0.00 | 83 | 1013.1 |
| 20260505065053 | 51 | 302 | 2.0 | 8.0 | 0.00 | 0.02 | 0.00 | 83 | 1013.2 |
| 20260505064553 | 51 | 59 | 2.0 | 8.0 | 0.00 | 0.02 | 0.00 | 83 | 1013.4 |
| 20260505064052 | 51 | 74 | 1.0 | 9.0 | 0.00 | 0.02 | 0.00 | 84 | 1013.4 |
| 20260505063551 | 51 | 78 | 1.0 | 9.0 | 0.00 | 0.02 | 0.00 | 84 | 1013.4 |
| 20260505063051 | 51 | 94 | 2.0 | 4.0 | 0.00 | 0.02 | 0.00 | 84 | 1013.3 |
| 20260505062550 | 51 | 43 | 1.0 | 5.0 | 0.00 | 0.02 | 0.00 | 84 | 1013.3 |
| 20260505062052 | 51 | 291 | 1.0 | 5.0 | 0.00 | 0.02 | 0.00 | 84 | 1013.3 |
| 20260505061551 | 51 | 87 | 1.0 | 6.0 | 0.00 | 0.02 | 0.00 | 84 | 1013.2 |
| 20260505061047 | 51 | 312 | 1.0 | 7.0 | 0.00 | 0.02 | 0.00 | 84 | 1013.2 |
| 20260505060547 | 51 | 66 | 0.0 | 5.0 | 0.00 | 0.02 | 0.00 | 85 | 1013.2 |
| 20260505060051 | 50 | 59 | 2.0 | 6.0 | 0.00 | 0.02 | 0.00 | 84 | 1013.1 |
| 20260505055548 | 50 | 72 | 2.0 | 6.0 | 0.00 | 0.02 | 0.00 | 84 | 1013.1 |
| 20260505055045 | 50 | 43 | 1.0 | 4.0 | 0.00 | 0.02 | 0.00 | 85 | 1013.1 |
| 20260505054546 | 50 | 313 | 0.0 | 5.0 | 0.00 | 0.02 | 0.00 | 85 | 1013.1 |
| 20260505054043 | 50 | 311 | 1.0 | 5.0 | 0.00 | 0.02 | 0.00 | 85 | 1013.2 |
| 20260505053544 | 50 | 17 | 1.0 | 8.0 | 0.00 | 0.02 | 0.00 | 85 | 1013.1 |
| 20260505053042 | 50 | 92 | 2.0 | 7.0 | 0.00 | 0.02 | 0.00 | 85 | 1013.1 |
| 20260505052541 | 50 | 29 | 0.0 | 7.0 | 0.00 | 0.02 | 0.00 | 86 | 1013.0 |
| 20260505052040 | 50 | 298 | 1.0 | 7.0 | 0.00 | 0.02 | 0.00 | 86 | 1013.0 |
| 20260505051556 | 50 | 37 | 1.0 | 5.0 | 0.00 | 0.02 | 0.00 | 86 | 1013.0 |
| 20260505051043 | 50 | 53 | 1.0 | 7.0 | 0.00 | 0.02 | 0.00 | 86 | 1013.0 |
| 20260505050539 | 50 | 5 | 2.0 | 7.0 | 0.00 | 0.02 | 0.00 | 86 | 1012.9 |
| 20260505041538 | 50 | 325 | 1.0 | 9.0 | 0.00 | 0.02 | 0.00 | 86 | 1012.8 |
| 20260505041035 | 50 | 346 | 0.0 | 8.0 | 0.00 | 0.02 | 0.00 | 86 | 1012.8 |
| 20260505040537 | 50 | 48 | 2.0 | 8.0 | 0.00 | 0.02 | 0.00 | 86 | 1012.8 |
| 20260505040037 | 50 | 355 | 1.0 | 7.0 | 0.00 | 0.02 | 0.00 | 86 | 1012.8 |
| 20260505035534 | 50 | 42 | 1.0 | 6.0 | 0.00 | 0.02 | 0.00 | 86 | 1012.8 |
| 20260505035033 | 50 | 58 | 2.0 | 9.0 | 0.00 | 0.02 | 0.00 | 86 | 1013.0 |
| 20260505034532 | 50 | 302 | 1.0 | 9.0 | 0.00 | 0.02 | 0.00 | 86 | 1013.0 |
| 20260505034032 | 50 | 19 | 3.0 | 9.0 | 0.00 | 0.02 | 0.00 | 86 | 1013.1 |
| 20260505033532 | 50 | 54 | 1.0 | 10.0 | 0.00 | 0.02 | 0.00 | 86 | 1013.0 |
| 20260505033032 | 50 | 308 | 2.0 | 10.0 | 0.00 | 0.02 | 0.00 | 86 | 1013.0 |
| 20260505032531 | 50 | 49 | 2.0 | 5.0 | 0.00 | 0.02 | 0.00 | 86 | 1013.0 |
| 20260505032030 | 50 | 350 | 1.0 | 6.0 | 0.00 | 0.02 | 0.00 | 86 | 1013.0 |
| 20260505031532 | 50 | 302 | 2.0 | 6.0 | 0.00 | 0.02 | 0.00 | 86 | 1013.0 |
| 20260505031029 | 50 | 36 | 1.0 | 6.0 | 0.00 | 0.02 | 0.00 | 86 | 1013.0 |
| 20260505030529 | 50 | 44 | 2.0 | 6.0 | 0.00 | 0.02 | 0.00 | 86 | 1012.9 |
| 20260505030029 | 50 | 331 | 2.0 | 8.0 | 0.00 | 0.02 | 0.00 | 86 | 1012.9 |
| 20260505025529 | 50 | 77 | 3.0 | 8.0 | 0.00 | 0.02 | 0.00 | 86 | 1012.9 |
| 20260505025027 | 50 | 61 | 1.0 | 9.0 | 0.00 | 0.02 | 0.00 | 86 | 1013.0 |
| 20260505024527 | 50 | 69 | 2.0 | 9.0 | 0.00 | 0.02 | 0.00 | 86 | 1013.0 |
| 20260505024026 | 50 | 315 | 3.0 | 10.0 | 0.00 | 0.02 | 0.00 | 86 | 1013.1 |
| 20260505023526 | 50 | 92 | 3.0 | 10.0 | 0.00 | 0.02 | 0.00 | 86 | 1013.1 |
| 20260505023027 | 50 | 336 | 3.0 | 8.0 | 0.00 | 0.02 | 0.00 | 86 | 1013.1 |
| 20260505022524 | 50 | 101 | 3.0 | 8.0 | 0.00 | 0.02 | 0.00 | 86 | 1013.2 |
| 20260505022029 | 50 | 40 | 1.0 | 5.0 | 0.00 | 0.02 | 0.00 | 86 | 1013.2 |
| 20260505021528 | 50 | 287 | 1.0 | 4.0 | 0.00 | 0.02 | 0.00 | 86 | 1013.3 |
| 20260505021024 | 50 | 313 | 1.0 | 6.0 | 0.00 | 0.02 | 0.00 | 86 | 1013.3 |
| 20260505020523 | 50 | 196 | 3.0 | 8.0 | 0.00 | 0.02 | 0.00 | 86 | 1013.3 |
| 20260505020022 | 50 | 38 | 2.0 | 8.0 | 0.00 | 0.02 | 0.00 | 86 | 1013.4 |
| 20260505015522 | 50 | 62 | 1.0 | 6.0 | 0.00 | 0.02 | 0.00 | 87 | 1013.3 |
| 20260505015026 | 50 | 63 | 1.0 | 8.0 | 0.00 | 0.02 | 0.00 | 87 | 1013.3 |
| 20260505014521 | 50 | 275 | 2.0 | 8.0 | 0.00 | 0.02 | 0.00 | 86 | 1013.3 |
| 20260505014024 | 50 | 72 | 1.0 | 8.0 | 0.00 | 0.02 | 0.00 | 86 | 1013.3 |
| 20260505013519 | 50 | 64 | 1.0 | 6.0 | 0.00 | 0.02 | 0.00 | 87 | 1013.4 |
| 20260505013019 | 50 | 70 | 2.0 | 9.0 | 0.00 | 0.02 | 0.00 | 86 | 1013.4 |
| 20260505012518 | 51 | 58 | 4.0 | 9.0 | 0.00 | 0.02 | 0.00 | 86 | 1013.4 |
| 20260505012018 | 51 | 53 | 1.0 | 4.0 | 0.00 | 0.02 | 0.00 | 86 | 1013.4 |
| 20260505011633 | 51 | 342 | 1.0 | 6.0 | 0.00 | 0.02 | 0.00 | 86 | 1013.5 |
| 20260505011016 | 51 | 355 | 2.0 | 8.0 | 0.00 | 0.02 | 0.00 | 86 | 1013.5 |
| 20260505010519 | 51 | 39 | 1.0 | 9.0 | 0.00 | 0.02 | 0.00 | 86 | 1013.5 |
| 20260505010014 | 51 | 340 | 2.0 | 8.0 | 0.00 | 0.02 | 0.00 | 86 | 1013.6 |
| 20260505005514 | 51 | 42 | 3.0 | 7.0 | 0.00 | 0.02 | 0.00 | 86 | 1013.7 |
| 20260505005014 | 51 | 21 | 1.0 | 3.0 | 0.00 | 0.02 | 0.00 | 86 | 1013.7 |
| 20260505004519 | 51 | 38 | 1.0 | 5.0 | 0.00 | 0.02 | 0.00 | 86 | 1013.8 |
| 20260505004012 | 51 | 323 | 2.0 | 8.0 | 0.00 | 0.02 | 0.00 | 86 | 1013.8 |
| 20260505003516 | 51 | 311 | 2.0 | 8.0 | 0.00 | 0.02 | 0.00 | 86 | 1013.8 |
| 20260505003012 | 51 | 54 | 0.0 | 5.0 | 0.00 | 0.02 | 0.00 | 86 | 1013.8 |
| 20260505002515 | 51 | 339 | 0.0 | 8.0 | 0.00 | 0.02 | 0.00 | 86 | 1013.9 |
| 20260505002012 | 51 | 56 | 2.0 | 8.0 | 0.00 | 0.02 | 0.00 | 86 | 1013.9 |
| 20260505001511 | 51 | 289 | 2.0 | 11.0 | 0.00 | 0.02 | 0.00 | 89 | 1013.9 |
| 20260505001010 | 51 | 39 | 2.0 | 11.0 | 0.00 | 0.02 | 0.00 | 86 | 1013.9 |
| 20260505000509 | 51 | 308 | 1.0 | 10.0 | 0.00 | 0.02 | 0.00 | 86 | 1013.9 |
| 20260505000019 | 51 | 34 | 3.0 | 10.0 | 0.00 | 0.02 | 0.00 | 86 | 1014.0 |
| 20260504235508 | 51 | 337 | 3.0 | 9.0 | 0.00 | 0.02 | 0.00 | 86 | 1014.1 |
| 20260504235008 | 51 | 36 | 1.0 | 7.0 | 0.00 | 0.02 | 0.00 | 86 | 1014.1 |
| 20260504234607 | 51 | 65 | 3.0 | 8.0 | 0.00 | 0.02 | 0.00 | 86 | 1014.1 |
| 20260504234006 | 51 | 26 | 3.0 | 8.0 | 0.00 | 0.02 | 0.00 | 86 | 1014.2 |
| 20260504233506 | 51 | 106 | 3.0 | 8.0 | 0.00 | 0.02 | 0.00 | 86 | 1014.1 |
| 20260504233006 | 51 | 288 | 1.0 | 5.0 | 0.00 | 0.02 | 0.00 | 85 | 1014.2 |
| 20260504232505 | 52 | 61 | 1.0 | 9.0 | 0.00 | 0.02 | 0.00 | 86 | 1014.2 |
| 20260504232004 | 52 | 341 | 3.0 | 9.0 | 0.00 | 0.02 | 0.00 | 86 | 1014.3 |
| 20260504231503 | 52 | 315 | 2.0 | 6.0 | 0.00 | 0.02 | 0.00 | 86 | 1014.3 |
| 20260504231002 | 52 | 329 | 2.0 | 6.0 | 0.00 | 0.02 | 0.00 | 86 | 1014.3 |
| 20260504230502 | 52 | 43 | 2.0 | 8.0 | 0.00 | 0.02 | 0.00 | 86 | 1014.4 |
| 20260504230002 | 52 | 56 | 1.0 | 5.0 | 0.00 | 0.02 | 0.00 | 86 | 1014.4 |
| 20260504225502 | 52 | 70 | 1.0 | 9.0 | 0.00 | 0.02 | 0.00 | 86 | 1014.3 |
| 20260504225100 | 52 | 340 | 3.0 | 10.0 | 0.00 | 0.02 | 0.00 | 86 | 1014.3 |
| 20260504224559 | 52 | 47 | 2.0 | 10.0 | 0.00 | 0.02 | 0.00 | 86 | 1014.3 |
| 20260504224059 | 53 | 321 | 2.0 | 5.0 | 0.00 | 0.02 | 0.00 | 86 | 1014.4 |
| 20260504223558 | 53 | 59 | 1.0 | 9.0 | 0.00 | 0.02 | 0.00 | 86 | 1014.4 |
| 20260504223103 | 53 | 279 | 2.0 | 10.0 | 0.00 | 0.02 | 0.00 | 86 | 1014.4 |
| 20260504222559 | 53 | 44 | 3.0 | 7.0 | 0.00 | 0.02 | 0.00 | 87 | 1014.3 |
| 20260504222055 | 53 | 19 | 1.0 | 5.0 | 0.00 | 0.02 | 0.00 | 87 | 1014.3 |
| 20260504221555 | 53 | 303 | 1.0 | 8.0 | 0.00 | 0.02 | 0.00 | 87 | 1014.4 |
| 20260504221054 | 53 | 351 | 2.0 | 8.0 | 0.00 | 0.02 | 0.00 | 87 | 1014.5 |
| 20260504220553 | 53 | 312 | 2.0 | 4.0 | 0.00 | 0.02 | 0.00 | 87 | 1014.5 |
| 20260504220052 | 53 | 319 | 1.0 | 5.0 | 0.00 | 0.02 | 0.00 | 87 | 1014.6 |
| 20260504215551 | 53 | 305 | 2.0 | 5.0 | 0.00 | 0.02 | 0.02 | 86 | 1014.5 |
| 20260504215051 | 53 | 47 | 1.0 | 4.0 | 0.00 | 0.02 | 0.02 | 86 | 1014.6 |
| 20260504214607 | 53 | 331 | 0.0 | 4.0 | 0.00 | 0.02 | 0.02 | 86 | 1014.6 |
| 20260504214052 | 53 | 306 | 1.0 | 5.0 | 0.00 | 0.02 | 0.02 | 86 | 1014.6 |
| 20260504213552 | 53 | 336 | 1.0 | 5.0 | 0.00 | 0.02 | 0.02 | 86 | 1014.6 |
| 20260504213058 | 53 | 28 | 1.0 | 6.0 | 0.00 | 0.02 | 0.02 | 86 | 1014.6 |
| 20260504212553 | 53 | 322 | 2.0 | 9.0 | 0.01 | 0.02 | 0.02 | 87 | 1014.6 |
| 20260504212051 | 53 | 69 | 3.0 | 9.0 | 0.01 | 0.02 | 0.02 | 87 | 1014.7 |
| 20260504211553 | 54 | 292 | 2.0 | 5.0 | 0.01 | 0.02 | 0.02 | 87 | 1014.7 |
| 20260504211050 | 54 | 311 | 1.0 | 5.0 | 0.01 | 0.02 | 0.02 | 87 | 1014.7 |
| 20260504210552 | 54 | 317 | 1.0 | 5.0 | 0.01 | 0.02 | 0.02 | 87 | 1014.7 |
| 20260504210049 | 54 | 292 | 1.0 | 5.0 | 0.01 | 0.02 | 0.02 | 87 | 1014.7 |
| 20260504205548 | 54 | 13 | 1.0 | 5.0 | 0.01 | 0.02 | 0.02 | 87 | 1014.7 |
| 20260504205049 | 54 | 280 | 1.0 | 6.0 | 0.01 | 0.02 | 0.02 | 87 | 1014.7 |